Wakefield, VA

8:21 PM EST on January 16, 2017 (GMT -0500)
Wakefield Municipal

Weather History for KAKQ - October, 2012

Change the Weather History Date:

Friday, October 12, 2012

  Actual Average (KJGG) Record (KJGG)
Temperature  
Mean Temperature 56 °F -  
Max Temperature 70 °F 72 °F 89 °F (2010)
Min Temperature 43 °F 48 °F 30 °F (1964)
Degree Days  
Heating Degree Days 8    
Growing Degree Days 6 (Base 50)    
Moisture  
Dew Point 43 °F    
Average Humidity 68    
Maximum Humidity 93    
Minimum Humidity 38    
Precipitation  
Precipitation 0.00 in - - ()
Sea Level Pressure  
Sea Level Pressure 30.23 in    
Wind  
Wind Speed 1 mph (North)    
Max Wind Speed 9 mph    
Max Gust Speed 16 mph    
Visibility 10 miles    
Events      
Averages and records for this station are not official NWS values.
T = Trace of Precipitation, MM = Missing Value Source: NWS Daily Summary

Daily Weather History Graph

Daily Weather History Graph

Search for Another Location

Airport or City:

Trip Planner

Search our weather history database for the weather conditions in past years. The results will help you decide how hot, cold, wet, or windy it might be!

Date:

Astronomy

Oct. 12, 2012 Rise Set
Actual Time 7:13 AM EDT 6:34 PM EDT
Civil Twilight 6:47 AM EDT 7:00 PM EDT
Nautical Twilight 6:17 AM EDT 7:30 PM EDT
Astronomical Twilight 5:47 AM EDT 8:00 PM EDT
Moon 3:58 AM EDT (10/12) 4:40 PM EDT (10/12)
Length of Visible Light 12h 13m
Length of Day
11h 21m
Waning Crescent, 11% of the Moon is Illuminated
Oct 12
Waning Crescent
Oct 15
New
Oct 21
First Quarter
Oct 29
Full
Nov 6
Last Quarter

Hourly Weather History & Observations

Time (EDT) Temp. Dew Point Humidity Pressure Visibility Wind Dir Wind Speed Gust Speed Precip Events Conditions
12:54 AM 43.0 °F 41.0 °F 93% 30.22 in 8.0 mi Calm Calm - N/A   Clear
1:54 AM 44.1 °F 42.1 °F 93% 30.22 in 7.0 mi Calm Calm - N/A   Clear
2:54 AM 43.0 °F 39.0 °F 86% 30.20 in 5.0 mi Calm Calm - N/A   Clear
4:54 AM 46.0 °F 41.0 °F 83% 30.17 in 10.0 mi Calm Calm - N/A   Clear
5:54 AM 46.0 °F 43.0 °F 89% 30.18 in 10.0 mi Calm Calm - N/A   Clear
6:54 AM 46.0 °F 41.0 °F 83% 30.19 in 10.0 mi Calm Calm - N/A   Clear
7:54 AM 46.9 °F 41.0 °F 80% 30.20 in 10.0 mi SW 4.6 mph - N/A   Clear
8:54 AM 53.1 °F 46.9 °F 80% 30.20 in 10.0 mi West 3.5 mph - N/A   Clear
10:54 AM 61.0 °F 46.0 °F 58% 30.21 in 10.0 mi NNW 6.9 mph - N/A   Clear
12:54 PM 66.9 °F 42.1 °F 40% 30.20 in 10.0 mi Calm Calm - N/A   Clear
1:54 PM 70.0 °F 43.0 °F 38% 30.19 in 10.0 mi North 6.9 mph - N/A   Clear
2:54 PM 70.0 °F 43.0 °F 38% 30.18 in 10.0 mi Calm Calm - N/A   Clear
3:54 PM 70.0 °F 44.1 °F 39% 30.19 in 10.0 mi Calm Calm - N/A   Clear
4:54 PM 69.1 °F 43.0 °F 39% 30.20 in 10.0 mi North 4.6 mph - N/A   Clear
6:54 PM 55.9 °F 51.1 °F 84% 30.26 in 10.0 mi Calm Calm - N/A   Clear
7:54 PM 57.9 °F 44.1 °F 60% 30.30 in 10.0 mi NNE 3.5 mph - N/A   Clear
8:54 PM 55.9 °F 41.0 °F 57% 30.34 in 10.0 mi NNE 9.2 mph 16.1 mph N/A   Clear
10:54 PM 50.0 °F 39.0 °F 66% 30.40 in 10.0 mi NNE 3.5 mph - N/A   Clear
11:54 PM 46.9 °F 39.9 °F 77% 30.40 in 10.0 mi Calm Calm - N/A   Clear